Time,TemperatureF,DewpointF,PressureIn,WindDirection,WindDirectionDegrees,WindSpeedMPH,WindSpeedGustMPH,Humidity,HourlyPrecipIn,Conditions,Clouds,dailyrainin,SoftwareType,DateUTC
2013-02-04 00:05:00,16.1,13.0,30.05,WSW,239,0.0,1.0,88,0.00,,,0.00,weatherlink.com 1.10,2013-02-04 05:05:00,
2013-02-04 00:20:00,16.2,13.0,30.06,WSW,252,0.0,2.0,88,0.00,,,0.00,weatherlink.com 1.10,2013-02-04 05:20:00,
2013-02-04 00:35:00,16.1,14.0,30.06,West,269,0.0,1.0,89,0.00,,,0.00,weatherlink.com 1.10,2013-02-04 05:35:00,
2013-02-04 00:50:00,16.1,14.0,30.06,WSW,248,0.0,1.0,89,0.00,,,0.00,weatherlink.com 1.10,2013-02-04 05:50:00,
2013-02-04 01:05:00,16.1,14.0,30.06,West,264,0.0,3.0,89,0.00,,,0.00,weatherlink.com 1.10,2013-02-04 06:05:00,
2013-02-04 01:20:00,16.1,14.0,30.06,West,264,0.0,1.0,89,0.00,,,0.00,weatherlink.com 1.10,2013-02-04 06:20:00,
2013-02-04 01:35:00,16.1,14.0,30.07,SW,232,0.0,3.0,89,0.00,,,0.00,weatherlink.com 1.10,2013-02-04 06:35:00,
2013-02-04 01:50:00,16.2,14.0,30.07,SW,219,0.0,1.0,89,0.00,,,0.00,weatherlink.com 1.10,2013-02-04 06:50:00,
2013-02-04 02:05:00,16.2,14.0,30.06,WSW,246,0.0,1.0,89,0.00,,,0.00,weatherlink.com 1.10,2013-02-04 07:05:00,
2013-02-04 02:20:00,16.1,13.0,30.06,WSW,245,0.0,1.0,88,0.00,,,0.00,weatherlink.com 1.10,2013-02-04 07:20:00,
2013-02-04 02:36:00,16.1,14.0,30.06,WSW,248,0.0,1.0,89,0.00,,,0.00,weatherlink.com 1.10,2013-02-04 07:36:00,
2013-02-04 02:50:00,16.0,13.0,30.06,WSW,249,0.0,0.0,89,0.00,,,0.00,weatherlink.com 1.10,2013-02-04 07:50:00,
2013-02-04 03:05:00,16.0,13.0,30.06,WSW,249,0.0,0.0,89,0.00,,,0.00,weatherlink.com 1.10,2013-02-04 08:05:00,
2013-02-04 03:20:00,15.8,13.0,30.06,WSW,249,0.0,0.0,89,0.00,,,0.00,weatherlink.com 1.10,2013-02-04 08:20:00,
2013-02-04 03:36:00,15.7,13.0,30.05,WSW,249,0.0,0.0,89,0.00,,,0.00,weatherlink.com 1.10,2013-02-04 08:36:00,
2013-02-04 03:50:00,15.5,13.0,30.05,WSW,249,0.0,0.0,90,0.00,,,0.00,weatherlink.com 1.10,2013-02-04 08:50:00,
2013-02-04 04:05:00,15.4,13.0,30.05,WSW,249,0.0,0.0,90,0.00,,,0.00,weatherlink.com 1.10,2013-02-04 09:05:00,
2013-02-04 04:21:00,15.4,13.0,30.04,WSW,248,0.0,0.0,90,0.00,,,0.00,weatherlink.com 1.10,2013-02-04 09:21:00,
2013-02-04 04:36:00,15.5,13.0,30.04,WSW,248,0.0,0.0,91,0.00,,,0.00,weatherlink.com 1.10,2013-02-04 09:36:00,
2013-02-04 04:51:00,15.3,13.0,30.04,WSW,248,0.0,0.0,91,0.00,,,0.00,weatherlink.com 1.10,2013-02-04 09:51:00,
2013-02-04 05:06:00,14.9,13.0,30.04,WSW,248,0.0,0.0,91,0.00,,,0.00,weatherlink.com 1.10,2013-02-04 10:06:00,
2013-02-04 05:21:00,14.2,12.0,30.03,WSW,247,0.0,0.0,91,0.00,,,0.00,weatherlink.com 1.10,2013-02-04 10:21:00,
2013-02-04 05:36:00,13.4,12.0,30.02,ESE,114,0.0,1.0,92,0.00,,,0.00,weatherlink.com 1.10,2013-02-04 10:36:00,
2013-02-04 05:51:00,13.6,12.0,30.02,ESE,115,0.0,0.0,92,0.00,,,0.00,weatherlink.com 1.10,2013-02-04 10:51:00,
2013-02-04 06:06:00,13.6,12.0,30.02,ESE,114,0.0,0.0,92,0.00,,,0.00,weatherlink.com 1.10,2013-02-04 11:06:00,
2013-02-04 06:21:00,13.7,12.0,30.02,ESE,108,0.0,1.0,93,0.00,,,0.00,weatherlink.com 1.10,2013-02-04 11:21:00,
2013-02-04 06:36:00,14.1,13.0,30.01,ESE,107,0.0,1.0,93,0.00,,,0.00,weatherlink.com 1.10,2013-02-04 11:36:00,
2013-02-04 06:51:00,14.2,13.0,30.01,ESE,107,0.0,0.0,93,0.00,,,0.00,weatherlink.com 1.10,2013-02-04 11:51:00,
2013-02-04 07:06:00,14.5,13.0,30.01,East,99,0.0,1.0,92,0.00,,,0.00,weatherlink.com 1.10,2013-02-04 12:06:00,
2013-02-04 07:21:00,14.7,13.0,30.00,SE,124,0.0,1.0,92,0.00,,,0.00,weatherlink.com 1.10,2013-02-04 12:21:00,
2013-02-04 07:36:00,14.9,13.0,30.00,ESE,108,0.0,1.0,92,0.00,,,0.00,weatherlink.com 1.10,2013-02-04 12:36:00,
2013-02-04 07:51:00,15.1,13.0,30.00,ESE,108,0.0,1.0,92,0.00,,,0.00,weatherlink.com 1.10,2013-02-04 12:51:00,
2013-02-04 08:06:00,15.2,13.0,30.00,East,91,0.0,1.0,92,0.00,,,0.00,weatherlink.com 1.10,2013-02-04 13:06:00,
2013-02-04 08:22:00,15.5,14.0,30.01,SE,142,0.0,1.0,92,0.00,,,0.00,weatherlink.com 1.10,2013-02-04 13:22:00,
2013-02-04 08:36:00,15.8,14.0,30.01,SE,140,0.0,0.0,92,0.00,,,0.00,weatherlink.com 1.10,2013-02-04 13:36:00,
2013-02-04 08:51:00,16.0,14.0,30.02,ESE,105,0.0,1.0,92,0.00,,,0.00,weatherlink.com 1.10,2013-02-04 13:51:00,
2013-02-04 09:06:00,16.3,14.0,30.01,ESE,114,0.0,1.0,91,0.00,,,0.00,weatherlink.com 1.10,2013-02-04 14:06:00,
2013-02-04 09:21:00,16.7,15.0,30.01,SE,131,0.0,1.0,91,0.00,,,0.00,weatherlink.com 1.10,2013-02-04 14:21:00,
2013-02-04 09:36:00,17.3,15.0,30.01,SE,142,0.0,1.0,91,0.00,,,0.00,weatherlink.com 1.10,2013-02-04 14:36:00,
2013-02-04 09:51:00,17.8,15.0,30.01,SE,135,0.0,1.0,90,0.00,,,0.00,weatherlink.com 1.10,2013-02-04 14:51:00,
2013-02-04 10:06:00,18.2,16.0,30.00,ESE,120,0.0,1.0,90,0.00,,,0.00,weatherlink.com 1.10,2013-02-04 15:06:00,
2013-02-04 10:22:00,18.9,16.0,30.00,SE,125,0.0,1.0,89,0.00,,,0.00,weatherlink.com 1.10,2013-02-04 15:22:00,
2013-02-04 10:37:00,19.2,17.0,30.00,SE,145,0.0,1.0,89,0.00,,,0.00,weatherlink.com 1.10,2013-02-04 15:37:00,
2013-02-04 10:51:00,19.5,17.0,30.00,East,87,0.0,1.0,88,0.00,,,0.00,weatherlink.com 1.10,2013-02-04 15:51:00,
2013-02-04 11:06:00,20.0,17.0,30.00,ESE,118,0.0,1.0,88,0.00,,,0.00,weatherlink.com 1.10,2013-02-04 16:06:00,
2013-02-04 11:22:00,20.5,18.0,29.99,SE,129,0.0,2.0,88,0.00,,,0.00,weatherlink.com 1.10,2013-02-04 16:22:00,
2013-02-04 11:37:00,20.9,18.0,29.99,ESE,115,1.0,3.0,87,0.00,,,0.00,weatherlink.com 1.10,2013-02-04 16:37:00,
2013-02-04 11:51:00,21.5,18.0,29.98,ESE,110,1.0,3.0,87,0.00,,,0.00,weatherlink.com 1.10,2013-02-04 16:51:00,
2013-02-04 12:06:00,22.0,19.0,29.97,SSE,147,0.0,3.0,86,0.00,,,0.00,weatherlink.com 1.10,2013-02-04 17:06:00,
2013-02-04 12:22:00,22.5,19.0,29.96,SE,136,1.0,3.0,86,0.00,,,0.00,weatherlink.com 1.10,2013-02-04 17:22:00,
2013-02-04 12:37:00,22.5,19.0,29.95,SE,125,2.0,4.0,85,0.00,,,0.00,weatherlink.com 1.10,2013-02-04 17:37:00,
2013-02-04 12:52:00,23.5,19.0,29.95,SSE,157,1.0,4.0,84,0.00,,,0.00,weatherlink.com 1.10,2013-02-04 17:52:00,
2013-02-04 13:07:00,23.4,19.0,29.94,East,79,1.0,4.0,84,0.00,,,0.00,weatherlink.com 1.10,2013-02-04 18:07:00,
2013-02-04 13:22:00,23.2,19.0,29.94,SSE,152,1.0,3.0,84,0.00,,,0.00,weatherlink.com 1.10,2013-02-04 18:22:00,
2013-02-04 13:37:00,23.9,20.0,29.93,ESE,105,2.0,4.0,83,0.00,,,0.00,weatherlink.com 1.10,2013-02-04 18:37:00,
2013-02-04 13:52:00,23.9,20.0,29.93,SSE,153,0.0,4.0,85,0.00,,,0.00,weatherlink.com 1.10,2013-02-04 18:52:00,
2013-02-04 14:07:00,24.2,20.0,29.92,SE,126,2.0,3.0,83,0.00,,,0.00,weatherlink.com 1.10,2013-02-04 19:07:00,
2013-02-04 14:22:00,24.6,20.0,29.92,SE,143,2.0,4.0,83,0.00,,,0.00,weatherlink.com 1.10,2013-02-04 19:22:00,
2013-02-04 14:37:00,24.2,20.0,29.92,ESE,108,2.0,3.0,83,0.00,,,0.00,weatherlink.com 1.10,2013-02-04 19:37:00,
2013-02-04 14:52:00,24.1,20.0,29.92,ESE,114,0.0,3.0,83,0.00,,,0.00,weatherlink.com 1.10,2013-02-04 19:52:00,
2013-02-04 15:07:00,24.4,20.0,29.91,ENE,72,0.0,5.0,82,0.00,,,0.00,weatherlink.com 1.10,2013-02-04 20:07:00,
2013-02-04 15:22:00,24.2,20.0,29.91,ENE,73,0.0,1.0,84,0.00,,,0.00,weatherlink.com 1.10,2013-02-04 20:22:00,
2013-02-04 15:37:00,24.1,20.0,29.92,ENE,71,0.0,1.0,84,0.00,,,0.00,weatherlink.com 1.10,2013-02-04 20:37:00,
2013-02-04 15:52:00,24.0,20.0,29.92,ENE,68,1.0,1.0,84,0.00,,,0.00,weatherlink.com 1.10,2013-02-04 20:52:00,
2013-02-04 16:07:00,23.8,20.0,29.92,NNW,340,0.0,1.0,84,0.00,,,0.00,weatherlink.com 1.10,2013-02-04 21:07:00,
2013-02-04 16:22:00,23.9,20.0,29.91,NE,54,0.0,1.0,84,0.00,,,0.00,weatherlink.com 1.10,2013-02-04 21:22:00,
2013-02-04 16:37:00,23.7,20.0,29.91,NNE,23,0.0,1.0,84,0.00,,,0.00,weatherlink.com 1.10,2013-02-04 21:37:00,
2013-02-04 16:52:00,23.6,20.0,29.91,NNW,342,0.0,1.0,84,0.00,,,0.00,weatherlink.com 1.10,2013-02-04 21:52:00,
2013-02-04 17:07:00,23.5,19.0,29.91,NNW,340,0.0,0.0,84,0.00,,,0.00,weatherlink.com 1.10,2013-02-04 22:07:00,
2013-02-04 17:22:00,23.1,19.0,29.90,NNW,340,0.0,0.0,85,0.00,,,0.00,weatherlink.com 1.10,2013-02-04 22:22:00,
2013-02-04 17:37:00,22.7,19.0,29.90,NNW,342,0.0,0.0,85,0.00,,,0.00,weatherlink.com 1.10,2013-02-04 22:37:00,
2013-02-04 17:52:00,22.1,19.0,29.90,NNW,342,0.0,0.0,86,0.00,,,0.00,weatherlink.com 1.10,2013-02-04 22:52:00,
2013-02-04 18:07:00,21.5,18.0,29.90,NNW,342,0.0,0.0,87,0.00,,,0.00,weatherlink.com 1.10,2013-02-04 23:07:00,
2013-02-04 18:22:00,21.3,18.0,29.90,NNW,342,0.0,0.0,88,0.00,,,0.00,weatherlink.com 1.10,2013-02-04 23:22:00,
2013-02-04 18:37:00,21.1,18.0,29.90,NNW,342,0.0,0.0,89,0.00,,,0.00,weatherlink.com 1.10,2013-02-04 23:37:00,
2013-02-04 18:52:00,21.2,19.0,29.91,NNW,338,0.0,1.0,90,0.00,,,0.00,weatherlink.com 1.10,2013-02-04 23:52:00,
2013-02-04 19:07:00,21.0,19.0,29.92,NNW,338,0.0,0.0,90,0.00,,,0.00,weatherlink.com 1.10,2013-02-05 00:07:00,
2013-02-04 19:22:00,20.9,19.0,29.93,NE,38,0.0,2.0,90,0.00,,,0.00,weatherlink.com 1.10,2013-02-05 00:22:00,
2013-02-04 19:37:00,20.8,18.0,29.93,NE,39,0.0,1.0,90,0.00,,,0.00,weatherlink.com 1.10,2013-02-05 00:37:00,
2013-02-04 19:52:00,20.7,18.0,29.94,NE,46,0.0,1.0,90,0.00,,,0.00,weatherlink.com 1.10,2013-02-05 00:52:00,
2013-02-04 20:07:00,20.5,18.0,29.94,North,359,0.0,1.0,90,0.00,,,0.00,weatherlink.com 1.10,2013-02-05 01:07:00,
2013-02-04 20:22:00,20.3,18.0,29.94,NNE,25,0.0,0.0,90,0.00,,,0.00,weatherlink.com 1.10,2013-02-05 01:22:00,
2013-02-04 20:38:00,20.1,18.0,29.94,NNE,23,0.0,1.0,90,0.00,,,0.00,weatherlink.com 1.10,2013-02-05 01:38:00,
2013-02-04 20:52:00,20.0,18.0,29.95,NNW,344,0.0,1.0,90,0.00,,,0.00,weatherlink.com 1.10,2013-02-05 01:52:00,
2013-02-04 21:07:00,19.9,18.0,29.95,NW,310,0.0,0.0,90,0.00,,,0.00,weatherlink.com 1.10,2013-02-05 02:07:00,
2013-02-04 21:23:00,19.8,17.0,29.96,NNE,13,0.0,1.0,90,0.00,,,0.00,weatherlink.com 1.10,2013-02-05 02:23:00,
2013-02-04 21:37:00,19.7,17.0,29.96,NNE,16,1.0,1.0,90,0.00,,,0.00,weatherlink.com 1.10,2013-02-05 02:37:00,
2013-02-04 21:52:00,19.6,17.0,29.96,North,349,0.0,1.0,90,0.00,,,0.00,weatherlink.com 1.10,2013-02-05 02:52:00,
2013-02-04 22:07:00,19.4,17.0,29.95,North,349,0.0,1.0,90,0.00,,,0.00,weatherlink.com 1.10,2013-02-05 03:07:00,
2013-02-04 22:22:00,19.2,17.0,29.95,North,349,0.0,1.0,90,0.00,,,0.00,weatherlink.com 1.10,2013-02-05 03:22:00,
2013-02-04 22:37:00,18.9,16.0,29.95,West,273,0.0,1.0,89,0.00,,,0.00,weatherlink.com 1.10,2013-02-05 03:37:00,
2013-02-04 22:52:00,18.8,16.0,29.95,NE,36,0.0,1.0,90,0.00,,,0.00,weatherlink.com 1.10,2013-02-05 03:52:00,
2013-02-04 23:07:00,18.7,16.0,29.96,North,11,0.0,1.0,90,0.00,,,0.00,weatherlink.com 1.10,2013-02-05 04:07:00,
2013-02-04 23:22:00,18.3,16.0,29.97,NW,304,0.0,1.0,89,0.00,,,0.00,weatherlink.com 1.10,2013-02-05 04:22:00,
2013-02-04 23:37:00,18.1,15.0,29.97,North,356,0.0,1.0,88,0.00,,,0.00,weatherlink.com 1.10,2013-02-05 04:37:00,
2013-02-04 23:53:00,17.8,15.0,29.98,East,82,0.0,1.0,88,0.00,,,0.00,weatherlink.com 1.10,2013-02-05 04:53:00,